Waarnemingen

Advertentie
Mijn weer
Eskdalemuir, Groot Brittannië (3162): temperatuur & dauwpunt: 17.09.2018 01:00:00 - 23.09.2018 01:00:00 (BST)Eskdalemuir, Groot Brittannië (3162): temperatuur -20cm & temperatuur -100cm: 17.09.2018 01:00:00 - 23.09.2018 01:00:00 (BST)Eskdalemuir, Groot Brittannië (3162): windsnelheid & windstoten: 17.09.2018 01:00:00 - 23.09.2018 01:00:00 (BST)Eskdalemuir, Groot Brittannië (3162): windrichting: 17.09.2018 01:00:00 - 23.09.2018 01:00:00 (BST)Eskdalemuir, Groot Brittannië (3162): luchtdruk: 17.09.2018 01:00:00 - 23.09.2018 01:00:00 (BST)Eskdalemuir, Groot Brittannië (3162): zicht: 17.09.2018 01:00:00 - 23.09.2018 01:00:00 (BST)Eskdalemuir, Groot Brittannië (3162): Zonneschijnduur: 17.09.2018 01:00:00 - 23.09.2018 01:00:00 (BST)Eskdalemuir, Groot Brittannië (3162): neerslag: 17.09.2018 01:00:00 - 23.09.2018 01:00:00 (BST)
Datum & Tijd tt [°C] td [°C] tt -20cm [°C] tt -100cm [°C] ff [km/u] ff [kn] fx [km/u] fx [kn] dd ppp [hPa] vv [km] sd [min] rr [mm]
23.09.2018 01:00:00 0,1 -0,2 - - 4 2 - - NO 1017,4 30 - 0,0
23.09.2018 00:00:00 1,0 0,4 - - 4 2 - - NW 1017,6 30 0 0,0
22.09.2018 23:00:00 1,3 1,0 - - 2 1 - - NW 1017,4 28 0 0,0
22.09.2018 22:00:00 2,1 1,5 - - 5 3 - - ONO 1016,9 40 0 0,0
22.09.2018 21:00:00 2,8 1,9 - - 2 1 - - ZZW 1016,8 50 0 0,0
22.09.2018 20:00:00 4,8 2,7 - - 8 4 - - WNW 1015,8 50 0 0,0
22.09.2018 19:00:00 7,3 2,9 - - 8 4 - - W 1015,0 50 60 0,0
22.09.2018 18:00:00 9,8 3,7 - - 11 6 - - W 1014,3 45 36 0,0
22.09.2018 17:00:00 11,4 1,6 - - 13 7 - - WNW 1014,5 40 36 0,0
22.09.2018 16:00:00 12,6 1,7 - - 18 10 - - WZW 1014,1 27 54 0,0
22.09.2018 15:00:00 12,8 1,6 - - 18 10 - - W 1014,2 45 60 0,0
22.09.2018 14:00:00 12,0 0,8 - - 24 13 - - W 1014,5 30 54 0,0
22.09.2018 13:00:00 10,8 3,3 - - 13 7 - - WZW 1014,6 20 36 0,0
22.09.2018 12:00:00 9,3 5,1 - - 16 9 - - WZW 1014,7 19 0 0,0
22.09.2018 11:00:00 8,4 5,9 - - 16 9 - - ZZW 1014,5 35 0 0,0
22.09.2018 10:00:00 7,7 5,8 13,0 12,9 13 7 - - ZZW 1014,4 25 0 0,0
22.09.2018 09:00:00 7,0 5,9 - - 11 6 - - ZZW 1014,0 28 0 0,0
22.09.2018 08:00:00 6,1 4,8 - - 15 8 - - ZZW 1013,7 28 0 0,0
22.09.2018 07:00:00 5,8 5,0 - - 13 7 - - ZZO 1013,4 22 0 0,0
22.09.2018 06:00:00 5,7 4,9 - - 9 5 - - ZZO 1013,1 18 0 0,0
22.09.2018 05:00:00 6,0 5,2 - - 11 6 - - ZZO 1013,0 19 0 0,0
22.09.2018 04:00:00 6,0 5,3 - - 11 6 - - ZZO 1012,9 20 0 0,0
22.09.2018 03:00:00 5,5 4,6 - - 9 5 - - ZZO 1012,7 19 0 0,0
22.09.2018 02:00:00 5,9 4,1 - - 11 6 - - Z 1012,3 30 0 0,0
22.09.2018 01:00:00 6,6 4,2 - - 18 10 - - ZW 1011,8 30 - 0,0
22.09.2018 00:00:00 6,6 4,3 - - 11 6 - - ZW 1011,4 30 0 0,0
21.09.2018 23:00:00 7,0 4,5 - - 16 9 - - ZW 1010,9 45 0 0,0
21.09.2018 22:00:00 7,2 4,8 - - 13 7 - - WZW 1010,3 50 0 0,0
21.09.2018 21:00:00 6,5 4,8 - - 9 5 - - Z 1009,9 45 0 0,0
21.09.2018 20:00:00 7,8 4,9 - - 8 4 - - ZZW 1009,0 45 0 0,0
21.09.2018 19:00:00 8,9 4,3 - - 5 3 - - WNW 1007,4 45 54 0,0
21.09.2018 18:00:00 10,7 5,5 - - 24 13 48 26 WNW 1006,0 45 42 0,0
21.09.2018 17:00:00 11,0 6,2 - - 24 13 46 25 W 1004,1 45 24 0,0
21.09.2018 16:00:00 10,3 6,6 - - 21 11 - - W 1002,8 40 18 0,0
21.09.2018 15:00:00 11,2 6,3 - - 24 13 - - W 1001,2 40 36 0,0
21.09.2018 14:00:00 9,6 6,6 - - 16 9 - - W 1000,1 35 6 0,4
21.09.2018 13:00:00 8,3 6,6 - - 22 12 - - WZW 998,7 8 0 0,8
21.09.2018 12:00:00 8,6 6,0 - - 22 12 46 25 ZW 997,9 12 6 0,0
21.09.2018 11:00:00 8,2 6,3 - - 18 10 - - ZW 997,3 18 6 0,0
21.09.2018 10:00:00 7,3 5,0 13,2 12,9 18 10 - - WZW 997,0 12 0 0,2
21.09.2018 09:00:00 6,8 4,7 - - 16 9 - - WZW 996,2 25 0 0,0
21.09.2018 08:00:00 6,2 4,1 - - 15 8 - - WZW 995,7 15 0 0,0
21.09.2018 07:00:00 6,1 4,5 - - 21 11 - - W 994,7 50 0 0,0
21.09.2018 06:00:00 5,6 4,0 - - 18 10 - - W 994,2 50 0 0,0
21.09.2018 05:00:00 5,1 3,7 - - 15 8 - - WNW 993,8 17 0 0,0
21.09.2018 04:00:00 5,0 3,5 - - 18 10 - - WNW 993,1 29 0 0,4
21.09.2018 03:00:00 5,4 4,1 - - 21 11 - - NW 992,5 23 0 2,8
21.09.2018 02:00:00 5,4 3,5 - - 21 11 - - NNW 992,3 17 0 0,8
21.09.2018 01:00:00 5,3 4,4 - - 15 8 - - NNW 991,7 4,1 - 1,0
21.09.2018 00:00:00 5,4 4,5 - - 22 12 - - N 992,9 8 0 2,0
20.09.2018 23:00:00 5,6 4,5 - - 15 8 - - N 994,8 8 0 2,6
20.09.2018 22:00:00 6,1 5,2 - - 8 4 - - N 996,7 6 0 0,6
20.09.2018 21:00:00 6,5 5,7 - - 8 4 - - NNO 998,3 11 0 1,0
20.09.2018 20:00:00 7,8 5,4 - - 4 2 - - NNW 999,1 19 0 0,0
20.09.2018 19:00:00 8,7 6,1 - - 5 3 - - N 999,2 50 0 0,0
20.09.2018 18:00:00 10,0 6,4 - - 4 2 - - O 1000,6 25 0 0,0
20.09.2018 17:00:00 9,8 8,0 - - 4 2 - - ONO 1002,1 35 0 0,0
20.09.2018 16:00:00 10,0 6,4 - - 4 2 - - Z 1003,6 30 0 0,0
20.09.2018 15:00:00 10,4 5,3 - - 15 8 - - ZZW 1004,3 30 0 0,0
20.09.2018 14:00:00 10,8 6,3 - - 16 9 - - ZW 1005,1 30 0 0,0
20.09.2018 13:00:00 10,9 6,0 - - 18 10 - - ZW 1005,8 28 0 0,0
20.09.2018 12:00:00 11,0 5,9 - - 16 9 - - ZW 1006,3 28 24 0,0
20.09.2018 11:00:00 10,2 6,4 - - 26 14 - - ZW 1006,3 25 24 0,0
20.09.2018 10:00:00 9,2 6,1 13,7 13,2 31 17 - - ZW 1006,8 28 48 0,0
20.09.2018 09:00:00 9,1 6,3 - - 24 13 - - ZW 1006,7 22 60 0,0
20.09.2018 08:00:00 7,9 5,9 - - 24 13 - - ZZW 1006,9 25 6 0,0
20.09.2018 07:00:00 7,4 5,6 - - 21 11 - - ZZW 1006,8 20 0 0,0
20.09.2018 06:00:00 8,0 5,8 - - 16 9 - - ZZW 1006,6 16 0 0,0
20.09.2018 05:00:00 8,1 5,6 - - 18 10 - - ZZW 1006,5 17 0 0,0
20.09.2018 04:00:00 8,2 5,6 - - 18 10 - - ZZW 1006,2 16 0 0,0
20.09.2018 03:00:00 8,6 5,4 - - 18 10 - - ZZW 1006,0 19 0 0,0
20.09.2018 02:00:00 8,8 4,9 - - 24 13 59 32 ZZW 1005,6 23 0 0,0
20.09.2018 01:00:00 9,3 5,5 - - 24 13 48 26 ZZW 1005,2 17 - 0,0
20.09.2018 00:00:00 8,8 4,8 - - 21 11 - - ZZW 1005,1 23 0 0,0
19.09.2018 23:00:00 8,6 3,9 - - 24 13 54 29 ZW 1004,9 24 0 0,0
19.09.2018 22:00:00 9,1 4,6 - - 22 12 - - ZW 1004,8 28 0 0,0
19.09.2018 21:00:00 9,1 3,6 - - 26 14 55 30 ZW 1004,3 26 0 0,0
19.09.2018 20:00:00 9,2 4,6 - - 28 15 - - ZZW 1003,2 25 0 0,0
19.09.2018 19:00:00 9,2 3,5 - - 21 11 63 34 ZZW 1002,8 35 36 0,0
19.09.2018 18:00:00 10,5 5,1 - - 35 19 68 37 ZZW 1001,3 40 0 0,0
19.09.2018 17:00:00 10,2 6,8 - - 34 18 68 37 ZW 999,8 40 0 0,8
19.09.2018 16:00:00 11,4 6,2 - - 44 24 85 46 ZZW 998,1 40 0 0,0
19.09.2018 15:00:00 11,2 7,3 - - 52 28 93 50 ZZW 996,1 11 0 0,2
19.09.2018 14:00:00 11,5 6,2 - - 57 31 96 52 ZZW 994,1 15 0 0,0
19.09.2018 13:00:00 12,9 6,8 - - 55 30 109 59 ZZW 992,5 15 6 5,0
19.09.2018 12:00:00 13,4 13,1 - - 61 33 98 53 Z 989,5 4,0 0 3,2
19.09.2018 11:00:00 13,6 10,3 - - 50 27 83 45 Z 991,5 8 0 0,8
19.09.2018 10:00:00 12,9 11,5 13,9 13,2 37 20 67 36 Z 994,5 12 0 1,0
19.09.2018 09:00:00 11,1 10,6 - - 24 13 - - ZZO 995,8 4,8 0 7,6
19.09.2018 08:00:00 11,8 10,8 - - 21 11 - - Z 997,7 4,0 0 0,6
19.09.2018 07:00:00 12,4 10,9 - - 28 15 - - ZZW 1000,4 10 0 0,0
19.09.2018 06:00:00 10,5 8,8 - - 11 6 - - Z 1001,8 14 0 0,0
19.09.2018 05:00:00 10,8 8,6 - - 15 8 - - ZZW 1002,7 15 0 0,0
19.09.2018 04:00:00 11,8 9,1 - - 21 11 48 26 ZZW 1002,4 15 0 0,0
19.09.2018 03:00:00 12,1 9,5 - - 34 18 63 34 ZZW 1002,1 16 0 0,0
19.09.2018 02:00:00 12,8 11,6 - - 31 17 57 31 ZZW 1001,7 9 0 0,0
19.09.2018 01:00:00 13,0 12,2 - - 31 17 48 26 Z 1001,1 8 - 0,0
19.09.2018 00:00:00 13,4 12,6 - - 29 16 48 26 ZZW 1000,8 7 0 0,0
18.09.2018 23:00:00 13,7 12,7 - - 29 16 48 26 ZZW 1000,1 - 0 0,0
18.09.2018 22:00:00 13,7 12,5 - - 29 16 52 28 ZZW 1000,0 8 0 0,0
18.09.2018 21:00:00 13,8 12,7 - - 31 17 52 28 ZZW 999,8 9 0 0,0
18.09.2018 20:00:00 14,3 13,4 - - 42 23 70 38 ZZW 999,4 20 0 3,2
18.09.2018 19:00:00 14,3 13,8 - - 42 23 65 35 Z 998,9 4,4 0 0,4
18.09.2018 18:00:00 14,1 12,8 - - 28 15 48 26 ZZW 999,6 13 0 0,0
18.09.2018 17:00:00 13,3 12,0 - - 28 15 50 27 ZZW 999,8 20 0 0,0
18.09.2018 16:00:00 13,6 11,5 - - 28 15 50 27 ZZW 999,2 30 0 0,0
18.09.2018 15:00:00 13,5 11,5 - - 31 17 55 30 ZZW 999,3 30 6 0,0
18.09.2018 14:00:00 14,8 13,4 - - 37 20 59 32 ZZW 998,2 35 6 0,0
18.09.2018 13:00:00 15,2 14,9 - - 29 16 50 27 ZZW 996,2 8 0 0,2
18.09.2018 12:00:00 15,0 14,9 - - 28 15 - - ZZW 995,3 6 0 0,0
18.09.2018 11:00:00 14,9 14,8 - - 21 11 - - Z 994,4 3,5 0 0,4
18.09.2018 10:00:00 14,4 14,2 13,7 13,2 4 2 - - ZZW 994,0 1,8 0 1,6
18.09.2018 09:00:00 13,7 13,6 - - 5 3 - - ZZW 993,9 3,0 0 1,6
18.09.2018 08:00:00 13,0 12,8 - - 2 1 - - NNW 994,1 4,0 0 1,8
18.09.2018 07:00:00 12,8 12,4 - - 4 2 - - ZZO 994,8 6 0 3,0
18.09.2018 06:00:00 13,1 12,3 - - 5 3 - - N 995,6 3,1 0 0,8
18.09.2018 05:00:00 13,7 12,0 - - 8 4 - - ZZO 996,4 26 0 0,0
18.09.2018 04:00:00 13,7 12,7 - - 9 5 - - ZZO 997,9 6 0 0,2
18.09.2018 03:00:00 13,4 12,6 - - 2 1 - - Z 998,9 18 0 0,0
18.09.2018 02:00:00 13,9 12,7 - - 9 5 - - ZZO 999,8 20 0 0,0
18.09.2018 01:00:00 14,6 12,1 - - 22 12 - - Z 1000,6 40 - 0,0
18.09.2018 00:00:00 14,2 11,8 - - 28 15 - - Z 1001,4 35 0 0,0
17.09.2018 23:00:00 14,9 13,0 - - 22 12 46 25 ZZW 1002,3 21 0 0,0
17.09.2018 22:00:00 15,4 13,3 - - 34 18 50 27 ZZW 1002,7 40 0 0,0
17.09.2018 21:00:00 15,7 14,1 - - 24 13 52 28 Z 1003,0 25 0 0,0
17.09.2018 20:00:00 15,6 14,6 - - 26 14 59 32 Z 1003,2 16 0 0,0
17.09.2018 19:00:00 15,6 14,6 - - 31 17 57 31 Z 1003,3 19 0 0,0
17.09.2018 18:00:00 15,7 14,7 - - 37 20 63 34 Z 1003,5 23 0 0,4
17.09.2018 17:00:00 15,5 14,9 - - 39 21 63 34 Z 1004,1 18 0 0,4
17.09.2018 16:00:00 13,7 13,4 - - 16 9 - - Z 1005,2 3,2 0 3,6
17.09.2018 15:00:00 13,1 12,8 - - 15 8 - - Z 1006,3 3,0 0 1,0
17.09.2018 14:00:00 14,3 11,5 - - 21 11 - - Z 1007,2 35 0 0,0
17.09.2018 13:00:00 13,4 10,7 - - 18 10 - - Z 1007,8 35 0 0,0
17.09.2018 12:00:00 13,7 11,1 - - 16 9 - - Z 1009,1 35 0 0,0
17.09.2018 11:00:00 12,6 10,8 - - 16 9 - - Z 1010,5 25 0 0,0
17.09.2018 10:00:00 11,2 10,4 13,7 13,4 5 3 - - ZZO 1010,7 30 0 0,0
17.09.2018 09:00:00 9,2 9,1 - - 2 1 - - N 1011,2 25 6 0,0
17.09.2018 08:00:00 8,3 8,2 - - 4 2 - - ZZW 1011,6 25 0 0,0
17.09.2018 07:00:00 8,5 8,5 - - 5 3 - - ZO 1012,1 5 0 0,0
17.09.2018 06:00:00 9,7 9,6 - - 5 3 - - ZZW 1012,1 13 0 0,0
17.09.2018 05:00:00 10,4 10,0 - - 8 4 - - ZZW 1012,4 14 0 0,0
17.09.2018 04:00:00 10,8 9,9 - - 9 5 - - ZZW 1012,6 20 0 0,0
17.09.2018 03:00:00 11,9 10,7 - - 16 9 - - ZZW 1012,7 23 0 0,0
17.09.2018 02:00:00 12,3 11,1 - - 15 8 - - Z 1012,6 26 0 0,0
17.09.2018 01:00:00 12,4 11,1 - - 16 9 - - ZZW 1012,8 30 - 0,0

tt = temperatuur
td = dauwpunt
tt -20cm = temperatuur -20cm
tt -100cm = temperatuur -100cm
ff = windsnelheid
fx = windstoten
dd = windrichting
ppp = luchtdruk
vv = zicht
sd = Zonneschijnduur
rr = neerslag

Weerstations in de omgeving